(250295) = 2003 QR4

Discovered at Campo Imperatore on 2003-08-19 by CINEOS.

Orbit

Orbit type: Main Belt

Note: WebGL enabled browser required.

epoch2023-02-25.0
epoch JD2460000.5
perihelion date2020-09-21.56068
perihelion JD2459114.06068
argument of perihelion (°)13.27411
ascending node (°)261.41000
inclination (°)4.96257
eccentricity0.1370634
perihelion distance (AU)1.9915823
Tisserand w.r.t. Jupiter3.6
ΔV w.r.t. Earth (km/sec)8.9
semimajor axis (AU)2.3079125
mean anomaly (°)249.18612
mean daily motion (°/day)0.28110910
aphelion distance (AU)2.624
period (years)3.51
P-vector [x]0.08081104
P-vector [y]-0.92220060
P-vector [z]-0.37817406
Q-vector [x]0.99305257
Q-vector [y]0.04193310
Q-vector [z]0.10994639
absolute magnitude17.11
phase slope0.15
uncertainty0
referenceMPO 745323
observations used404
oppositions16
arc length (days)7711
first opposition used2002
last opposition used2023
residual rms (arc-secs)0.77
perturbers coarse indicatorM-v
perturbers precise indicator003Ek
first observation date used2002-03-06.0
last observation date used2023-04-16.0
computer nameMPCLINUX
JD of orbit computation2456966.936267
perihelion JD uncertainty (days)1.0196E-04
argument of perihelion uncertainty (°)8.9981E-05
ascending node uncertainty (°)8.5420E-05
inclination uncertainty (°)7.3381E-06
eccentricity uncertainty 6.3987E-08
perihelion distance uncertainty (AU)1.5435E-07
Minimum Orbit Intersection Distances (in AU)
for orbit epoch: 2460000.5, reference: E2023-H35
Mercury1.53045
Venus1.26516
Earth0.9751
Mars0.50975
Jupiter2.46587
Saturn6.4382
Uranus16.0106
Neptune27.3724

Observations

418 total observations over interval: 2002 03 06.21144 – 2023 04 16.184414
These data are available for download (format description).

Date (UT) J2000 RA J2000 Dec Magn Location Ref
2002 03 06.21144 09 56 03.43 +04 07 32.5 20.7 R 644 – Palomar Mountain/NEAT MPS 201494
2002 03 06.22197 09 56 02.84 +04 07 36.0 20.6 R 644 – Palomar Mountain/NEAT MPS 201494
2002 03 06.23247 09 56 02.19 +04 07 38.9 20.1 R 644 – Palomar Mountain/NEAT MPS 201494
2003 08 01.34916 22 38 42.86 +00 06 33.7 19.9   704 – Lincoln Laboratory ETS, New Mexico MPS 85246
2003 08 01.35959 22 38 42.45 +00 06 33.0 19.8   704 – Lincoln Laboratory ETS, New Mexico MPS 85246
2003 08 01.38035 22 38 41.67 +00 06 34.2 20.1   704 – Lincoln Laboratory ETS, New Mexico MPS 85246
2003 08 19.93567 22 24 10.50 -00 26 07.7 18.8 R 599 – Campo Imperatore-CINEOS MPS 83110
2003 08 19.95919 22 24 09.16 -00 26 12.9 19.1 R 599 – Campo Imperatore-CINEOS MPS 83110
2003 08 19.97093 22 24 08.46 -00 26 15.6 18.9 R 599 – Campo Imperatore-CINEOS MPS 83110
2003 08 20.32090 22 23 49.07 -00 27 31.4 19.0   644 – Palomar Mountain/NEAT MPS 83110
2003 08 20.34544 22 23 47.62 -00 27 36.9 19.2   644 – Palomar Mountain/NEAT MPS 83110
2003 08 20.38428 22 23 45.34 -00 27 45.4 18.8   644 – Palomar Mountain/NEAT MPS 83110
2003 08 20.91397 22 23 16.01 -00 29 45.7 19.1 R 599 – Campo Imperatore-CINEOS MPS 83110
2003 08 20.92677 22 23 15.30 -00 29 48.6 19.5 R 599 – Campo Imperatore-CINEOS MPS 83110
2003 08 22.21502 22 22 03.07 -00 34 49.6 20.1   644 – Palomar Mountain/NEAT MPS 83441
2003 08 22.28593 22 21 58.92 -00 35 06.7 19.2   644 – Palomar Mountain/NEAT MPS 83441
2003 08 22.35890 22 21 54.60 -00 35 24.2 20.1   644 – Palomar Mountain/NEAT MPS 83441
2003 09 18.19999 21 59 38.19 -02 53 21.8 19.6   644 – Palomar Mountain/NEAT MPS 84553
2003 09 18.22223 21 59 37.38 -02 53 29.1 19.4   644 – Palomar Mountain/NEAT MPS 84553
2003 09 18.24394 21 59 36.55 -02 53 36.2 19.4   644 – Palomar Mountain/NEAT MPS 84553
2003 09 29.13234 21 55 05.42 -03 45 35.9 20.7 V 691 – Steward Observatory, Kitt Peak-Spacewatch MPS 86934
2003 09 29.15925 21 55 04.98 -03 45 42.9 20.6 V 691 – Steward Observatory, Kitt Peak-Spacewatch MPS 86934
2003 09 29.18576 21 55 04.52 -03 45 49.5 20.6 V 691 – Steward Observatory, Kitt Peak-Spacewatch MPS 86934
2004 12 10.37729 06 58 53.27 +21 01 49.0 20.9 V 691 – Steward Observatory, Kitt Peak-Spacewatch MPS 123333
2004 12 10.41134 06 58 51.34 +21 01 47.7 21.0 V 691 – Steward Observatory, Kitt Peak-Spacewatch MPS 123333
2004 12 10.43726 06 58 49.94 +21 01 46.1 21.1 V 691 – Steward Observatory, Kitt Peak-Spacewatch MPS 123333
2004 12 19.32819 06 49 59.89 +20 55 34.6 20.7 V 691 – Steward Observatory, Kitt Peak-Spacewatch MPS 123333
2004 12 19.35430 06 49 58.15 +20 55 33.6 20.4 V 691 – Steward Observatory, Kitt Peak-Spacewatch MPS 123333
2004 12 19.38044 06 49 56.41 +20 55 32.7 20.7 V 691 – Steward Observatory, Kitt Peak-Spacewatch MPS 123333
2006 04 25.43044 15 12 10.99 -23 49 48.8 19.3 R 644 – Palomar Mountain/NEAT MPS 169885
2006 04 25.45714 15 12 09.58 -23 49 41.0 19.2 R 644 – Palomar Mountain/NEAT MPS 169885
2006 04 25.48219 15 12 08.29 -23 49 34.0 19.9 R 644 – Palomar Mountain/NEAT MPS 169885
2006 05 18.27156 14 51 03.10 -21 26 37.8 19.6 R 644 – Palomar Mountain/NEAT MPS 171598
2006 05 18.27278 14 51 03.05 -21 26 37.3 19.7 R 644 – Palomar Mountain/NEAT MPS 171598
2006 05 18.29600 14 51 01.72 -21 26 26.6 19.3 R 644 – Palomar Mountain/NEAT MPS 171598
2006 05 18.29719 14 51 01.62 -21 26 26.3 19.0 R 644 – Palomar Mountain/NEAT MPS 171598
2006 05 18.32387 14 51 00.07 -21 26 14.6 18.9 R 644 – Palomar Mountain/NEAT MPS 171598
2006 05 18.32508 14 51 00.02 -21 26 13.8 19.1 R 644 – Palomar Mountain/NEAT MPS 171598
2007 11 07.27344 02 50 31.76 +21 26 09.1 20.1   704 – Lincoln Laboratory ETS, New Mexico MPS 224748
2007 11 07.28654 02 50 30.91 +21 26 04.1 20.2   704 – Lincoln Laboratory ETS, New Mexico MPS 224748
2007 11 07.29890 02 50 30.14 +21 26 00.6 20.2   704 – Lincoln Laboratory ETS, New Mexico MPS 224748
2007 11 07.31119 02 50 29.28 +21 25 55.4 20.0   704 – Lincoln Laboratory ETS, New Mexico MPS 224748
2007 11 14.10872 02 43 23.80 +20 41 19.9 20.2 V 691 – Steward Observatory, Kitt Peak-Spacewatch MPS 226785
2007 11 14.12638 02 43 22.68 +20 41 13.2 20.3 V 691 – Steward Observatory, Kitt Peak-Spacewatch MPS 226785
2007 11 14.14402 02 43 21.61 +20 41 05.4 20.2 V 691 – Steward Observatory, Kitt Peak-Spacewatch MPS 226785
2007 11 18.24856 02 39 18.20 +20 13 30.9 20.6   704 – Lincoln Laboratory ETS, New Mexico MPS 228236
2007 11 18.26097 02 39 17.44 +20 13 26.0 20.0   704 – Lincoln Laboratory ETS, New Mexico MPS 228236
2007 11 18.27342 02 39 16.74 +20 13 21.7 20.5   704 – Lincoln Laboratory ETS, New Mexico MPS 228236
2009 02 22.33990 09 59 59.28 +03 53 47.5 20.3 V G96 – Mt. Lemmon Survey MPS 277552
2009 02 22.34605 09 59 58.92 +03 53 49.4 20.1 V G96 – Mt. Lemmon Survey MPS 277552
2009 02 22.35221 09 59 58.48 +03 53 51.3 20.2 V G96 – Mt. Lemmon Survey MPS 277552
2009 02 22.35846 09 59 58.02 +03 53 52.6 20.0 V G96 – Mt. Lemmon Survey MPS 277552
2010 09 03.25083 21 59 01.23 -02 43 55.3 19.8   704 – Lincoln Laboratory ETS, New Mexico MPS 347079
2010 09 03.26248 21 59 00.60 -02 43 58.6 20.0   704 – Lincoln Laboratory ETS, New Mexico MPS 347079
2010 09 03.27413 21 58 59.96 -02 44 02.4 20.0   704 – Lincoln Laboratory ETS, New Mexico MPS 347079
2010 09 03.28584 21 58 59.33 -02 44 05.8 19.9   704 – Lincoln Laboratory ETS, New Mexico MPS 347079
2010 09 11.24015 21 52 50.10 -03 25 40.9 19.6   704 – Lincoln Laboratory ETS, New Mexico MPS 347914
2010 09 11.25236 21 52 49.47 -03 25 45.0 20.0   704 – Lincoln Laboratory ETS, New Mexico MPS 347914
2010 09 11.26453 21 52 49.05 -03 25 49.1 19.7   704 – Lincoln Laboratory ETS, New Mexico MPS 347914
2010 09 11.27670 21 52 48.41 -03 25 53.0 20.3   704 – Lincoln Laboratory ETS, New Mexico MPS 347914
2010 09 11.28896 21 52 47.99 -03 25 57.5 19.8   704 – Lincoln Laboratory ETS, New Mexico MPS 347914
2010 09 16.24979 21 49 43.46 -03 51 10.5 19.2 V 703 – Catalina Sky Survey MPS 347914
2010 09 16.25721 21 49 43.17 -03 51 12.2 20.1 V 703 – Catalina Sky Survey MPS 347914
2010 09 16.26471 21 49 42.92 -03 51 14.1 19.5 V 703 – Catalina Sky Survey MPS 347914
2010 09 16.27213 21 49 42.78 -03 51 16.7 19.4 V 703 – Catalina Sky Survey MPS 347914
2010 10 13.15218 21 45 58.68 -05 26 02.4 20.0 V G96 – Mt. Lemmon Survey MPS 353627
2010 10 13.15917 21 45 58.78 -05 26 02.8 20.3 V G96 – Mt. Lemmon Survey MPS 353627
2010 10 13.16617 21 45 58.86 -05 26 03.3 20.2 V G96 – Mt. Lemmon Survey MPS 353627
2010 10 13.17319 21 45 58.96 -05 26 04.0 20.3 V G96 – Mt. Lemmon Survey MPS 353627
2010 11 04.09649 21 58 30.50 -05 27 28.9 20.8 V G96 – Mt. Lemmon Survey MPS 355157
2010 11 04.10343 21 58 30.86 -05 27 28.4 21.4 V G96 – Mt. Lemmon Survey MPS 355157
2010 11 04.11044 21 58 31.18 -05 27 28.0 21.6 V G96 – Mt. Lemmon Survey MPS 355157
2010 11 04.11742 21 58 31.54 -05 27 27.6 21.2 V G96 – Mt. Lemmon Survey MPS 355157
2010 11 06.09861 22 00 12.99 -05 24 04.1 20.9 V G96 – Mt. Lemmon Survey MPS 357316
2010 11 06.10559 22 00 13.35 -05 24 03.2 21.2 V G96 – Mt. Lemmon Survey MPS 357316
2010 11 06.11258 22 00 13.71 -05 24 02.2 20.6 V G96 – Mt. Lemmon Survey MPS 357316
2010 11 06.11947 22 00 14.07 -05 24 01.9 20.9 V G96 – Mt. Lemmon Survey MPS 357316
2011 11 17.44099 07 06 02.59 +21 44 51.3 20.3 V G96 – Mt. Lemmon Survey MPS 400978
2011 11 17.44743 07 06 02.48 +21 44 50.6 21.5 V G96 – Mt. Lemmon Survey MPS 400978
2011 11 17.45382 07 06 02.37 +21 44 50.0 21.2 V G96 – Mt. Lemmon Survey MPS 400978
2011 11 17.46025 07 06 02.23 +21 44 49.6 21.3 V G96 – Mt. Lemmon Survey MPS 400978
2013 05 03.56806 14 50 07.22 -22 20 10.2 19.3 V E12 – Siding Spring Survey MPS 467379
2013 05 03.57439 14 50 06.82 -22 20 08.0 19.4 V E12 – Siding Spring Survey MPS 467379
2013 05 03.58056 14 50 06.43 -22 20 05.1 19.1 V E12 – Siding Spring Survey MPS 467379
2013 05 05.39440 14 48 21.993 -22 08 14.65 19.0 w F51 – Pan-STARRS 1, Haleakala MPS 467379
2013 05 05.42399 14 48 20.181 -22 08 02.79 19.1 w F51 – Pan-STARRS 1, Haleakala MPS 467379
2013 05 05.43878 14 48 19.275 -22 07 56.83 19.0 w F51 – Pan-STARRS 1, Haleakala MPS 467379
2013 05 10.62435 14 43 20.60 -21 31 27.5 19.0 V E12 – Siding Spring Survey MPS 468497
2013 05 10.63493 14 43 19.95 -21 31 23.9 19.0 V E12 – Siding Spring Survey MPS 468497
